Location: Invercargill
(46.4000°S, 168.3500°E)
Time: 00:32:37
(UTC+13:00)

Cosmos 405 Rocket - Pass Details

Date: 05 October 2021
Orbit: 488 x 552 km, 81.3° (Epoch: 17 October)

Event Time Altitude Azimuth Distance (km) Brightness Sun altitude
Exits shadow 23:29:50 15° 168° (SSE) 1,579 5.5 -31.7°
Drops below altitude 10° 23:30:34 10° 168° (SSE) 1,873 6.0 -31.8°
Sets 23:32:46 0° 168° (SSE) 2,774 6.9 -32.0°
